Kolob Reservoir Weather Center

Moon Phase Calendar



Kolob Reservoir Water Level
Online Cameras

 


      

Current Conditions in Cedar City
7/14/2024 7:12:42 PM

75°F
Feels Like 73
Clouds
Humidity
21%
Pressure
30"
Wind
7.8 mph (S)
Dew Point
33°F
UV Index
1/10 (Low)
Visibility
6 mi

Hourly Forecast

Date & Time Sun, Jul 14
7:00 PM
Sun, Jul 14
8:00 PM
Sun, Jul 14
9:00 PM
Sun, Jul 14
10:00 PM
Sun, Jul 14
11:00 PM
Mon, Jul 15
12:00 AM
Mon, Jul 15
1:00 AM
Mon, Jul 15
2:00 AM
Mon, Jul 15
3:00 AM
Mon, Jul 15
4:00 AM
Mon, Jul 15
5:00 AM
Mon, Jul 15
6:00 AM
Mon, Jul 15
7:00 AM
Mon, Jul 15
8:00 AM
Mon, Jul 15
9:00 AM
Mon, Jul 15
10:00 AM
Mon, Jul 15
11:00 AM
Mon, Jul 15
12:00 PM
Mon, Jul 15
1:00 PM
Mon, Jul 15
2:00 PM
Mon, Jul 15
3:00 PM
Mon, Jul 15
4:00 PM
Mon, Jul 15
5:00 PM
Mon, Jul 15
6:00 PM
Mon, Jul 15
7:00 PM
Mon, Jul 15
8:00 PM
Mon, Jul 15
9:00 PM
Mon, Jul 15
10:00 PM
Mon, Jul 15
11:00 PM
Tue, Jul 16
12:00 AM
Tue, Jul 16
1:00 AM
Tue, Jul 16
2:00 AM
Tue, Jul 16
3:00 AM
Tue, Jul 16
4:00 AM
Tue, Jul 16
5:00 AM
Tue, Jul 16
6:00 AM
Tue, Jul 16
7:00 AM
Tue, Jul 16
8:00 AM
Tue, Jul 16
9:00 AM
Tue, Jul 16
10:00 AM
Tue, Jul 16
11:00 AM
Tue, Jul 16
12:00 PM
Tue, Jul 16
1:00 PM
Tue, Jul 16
2:00 PM
Tue, Jul 16
3:00 PM
Tue, Jul 16
4:00 PM
Tue, Jul 16
5:00 PM
Tue, Jul 16
6:00 PM
Condition
Clouds

Rain

Clouds

Clouds

Clouds

Clouds

Clouds

Clouds

Clouds

Clouds

Clouds

Clouds

Clouds

Clouds

Clouds

Clouds

Clouds

Clouds

Clouds

Clouds

Clouds

Clouds

Clouds

Clouds

Clouds

Clouds

Rain

Clouds

Clouds

Clouds

Clouds

Clouds

Clouds

Clouds

Clouds

Clouds

Clear

Clear

Clear

Clear

Clear

Clear

Clouds

Clouds

Clouds

Clouds

Rain

Rain
Temperature 75°F75°F72°F69°F66°F60°F60°F58°F57°F57°F59°F57°F62°F67°F70°F73°F75°F77°F79°F81°F80°F83°F81°F81°F78°F75°F66°F60°F60°F58°F57°F60°F58°F57°F56°F56°F58°F66°F69°F72°F75°F78°F80°F80°F76°F75°F74°F76°F
Feels Like 73°F73°F70°F67°F64°F58°F58°F56°F55°F55°F57°F55°F60°F65°F68°F71°F74°F76°F79°F79°F79°F80°F79°F79°F77°F73°F64°F59°F59°F56°F56°F58°F56°F55°F54°F54°F56°F64°F67°F70°F74°F77°F79°F79°F75°F73°F73°F74°F
Cloudiness 99%99%99%100%100%99%100%66%45%39%51%58%100%100%100%92%86%74%100%100%100%94%88%79%96%79%84%89%91%93%95%88%65%72%75%65%8%7%5%6%6%5%58%64%66%70%75%77%
Visibility 6 mi6 mi6 mi6 mi6 mi6 mi6 mi6 mi6 mi6 mi6 mi6 mi6 mi6 mi6 mi6 mi6 mi6 mi6 mi6 mi6 mi6 mi6 mi6 mi6 mi6 mi6 mi6 mi6 mi6 mi6 mi6 mi6 mi6 mi6 mi6 mi6 mi6 mi6 mi6 mi6 mi6 mi6 mi6 mi6 mi6 mi6 mi6 mi
Precipitation 3%20%0%0%0%0%0%0%0%0%0%0%0%0%0%0%0%0%0%0%0%0%0%0%0%0%74%42%29%18%0%0%0%0%0%0%0%0%0%0%0%0%0%0%0%5%20%29%
Humidity 21%22%26%32%37%47%48%54%52%54%48%52%43%35%32%29%26%24%21%19%20%17%18%17%20%26%40%59%60%62%61%54%56%58%60%61%55%40%35%31%28%24%22%22%28%30%27%25%
Dew Point 33°F34°F35°F38°F39°F42°F42°F43°F42°F43°F41°F41°F41°F41°F40°F41°F40°F40°F38°F37°F37°F36°F35°F35°F36°F39°F44°F48°F49°F47°F46°F45°F44°F45°F45°F44°F44°F43°F42°F42°F42°F41°F40°F40°F43°F43°F40°F40°F
Pressure 30"30"30.03"30.06"30.06"30.09"30.09"30.09"30.09"30.06"30.06"30.06"30.09"30.09"30.06"30.06"30.03"30"29.97"29.94"29.94"29.88"29.85"29.85"29.88"29.91"29.97"30.06"30.06"30.06"30.06"30.03"30"30"30"30"30.03"30.03"30"29.97"29.97"29.94"29.91"29.91"29.94"29.97"29.94"29.91"
Wind Speed 7.8 mph6.3 mph9.9 mph5.1 mph2.2 mph1 mph1.7 mph2.1 mph3.1 mph5.2 mph6.5 mph3.6 mph3.3 mph2.2 mph4 mph7.5 mph9.2 mph10.7 mph11.5 mph13.9 mph13.2 mph15.4 mph14.3 mph16.2 mph20.2 mph17.7 mph9.4 mph5.4 mph5.7 mph6.2 mph5 mph6.1 mph5 mph1.7 mph2.6 mph3.8 mph3.6 mph1.9 mph3.1 mph4.4 mph6 mph9 mph10.8 mph16.4 mph15.6 mph5.4 mph8.2 mph11.6 mph
Wind
Direction
180°
S
234°
SW
203°
SSW
204°
SSW
228°
SW
355°
N
92°
E
51°
NE
326°
NW
19°
NNE
22°
NNE
23°
NNE
34°
NE
33°
NNE
209°
SSW
220°
SW
222°
SW
219°
SW
216°
SW
219°
SW
238°
WSW
254°
WSW
273°
W
255°
WSW
253°
WSW
252°
WSW
196°
SSW
112°
ESE
100°
E
95°
E
50°
NE
13°
NNE
356°
N
34°
NE
30°
NNE
25°
NNE
27°
NNE
355°
N
277°
W
260°
W
254°
WSW
253°
WSW
244°
WSW
236°
SW
248°
WSW
352°
N
336°
NNW
333°
NNW

Daily Forecast

Date High Low Precip. Humidity
Today
Jul 14

Clouds
84 °F
59 °F
3%
16%
Monday
Jul 15

Rain
83 °F
57 °F
74%
21%
Tuesday
Jul 16

Rain
80 °F
56 °F
29%
22%
Wednesday
Jul 17

Rain
84 °F
60 °F
23%
16%
Thursday
Jul 18

Rain
79 °F
61 °F
30%
27%
Friday
Jul 19

Rain
81 °F
59 °F
26%
21%
Saturday
Jul 20

Clear
85 °F
62 °F
0%
17%
Sunday
Jul 21

Rain
80 °F
56 °F
100%
23%
Monday
Jul 22

Rain
79 °F
61 °F
43%
24%
Tuesday
Jul 23

Rain
77 °F
58 °F
100%
32%
Wednesday
Jul 24

Rain
72 °F
58 °F
100%
43%
Thursday
Jul 25

Rain
77 °F
58 °F
82%
39%
Friday
Jul 26

Rain
81 °F
60 °F
44%
34%
Saturday
Jul 27

Clouds
82 °F
60 °F
0%
26%
Sunday
Jul 28

Rain
77 °F
63 °F
100%
28%
Monday
Jul 29

Rain
83 °F
61 °F
93%
28%

Temperature 8-14 Day Outlook



Precipitation 8-14 Day Outlook






About Us
Contact Us
Site Map
Search Site
Advertise With Us
   
Kolob.LakesOnline.com
THE KOLOB RESERVOIR WEBSITE

Copyright 2024, Lakes Online
Privacy    |    Legal